Theta_e
316 315 316 315 314 314 314 314 315 317 318 318 317 316 316 317 319 320 320 323 327 327 325 322 320 326 344 348 346 344 344 348 348 346 342 339 340 339 343 345 348 352 350 349 348
313 313 313 314 313 312 312 312 312 314 315 315 317 318 316 316 317 319 322 321 324 325 325 322 331 337 343 345 342 337 338 342 343 344 343 342 342 336 337 345 353 353 351 349 349
312 311 312 312 312 311 311 311 312 312 313 314 314 317 318 315 316 324 326 325 326 325 324 323 335 341 342 339 337 335 334 335 333 333 339 332 329 331 333 336 353 352 350 349 349
313 312 312 312 311 312 312 312 312 312 313 313 314 315 318 316 327 327 326 324 322 321 322 331 334 337 334 332 334 333 332 331 329 330 329 327 330 329 332 336 342 352 351 350 350
314 313 312 312 312 312 313 313 313 313 313 314 314 315 317 319 318 325 325 323 323 323 329 339 341 336 332 331 332 331 330 330 330 330 330 330 329 329 329 331 334 352 351 351 351
317 315 314 313 313 313 314 313 313 313 314 315 316 316 317 321 328 327 325 326 323 324 326 338 338 333 333 332 329 330 329 329 330 330 331 330 330 330 330 329 338 352 352 352 352
317 316 315 314 314 314 314 314 314 315 315 315 316 316 318 320 325 326 327 329 329 327 328 332 332 331 331 328 329 328 327 328 328 329 328 330 329 329 331 330 331 354 353 352 352
314 315 314 313 313 314 314 315 316 316 316 316 316 316 319 325 324 324 323 328 330 328 329 331 328 324 324 326 325 323 322 323 326 328 329 328 327 330 332 331 330 336 354 353 352
313 313 313 313 313 314 316 317 318 317 317 317 323 325 330 324 323 322 321 321 323 328 330 327 324 323 324 322 321 322 321 323 326 329 329 329 327 330 332 332 331 330 346 354 353
313 313 313 313 313 315 320 318 321 320 320 320 326 326 328 326 323 323 323 323 323 323 323 324 324 323 324 322 322 323 323 324 326 328 328 327 327 328 331 331 331 331 331 349 353
314 313 313 313 314 318 320 322 321 325 321 326 325 326 325 324 323 324 323 323 323 323 322 324 321 324 326 326 326 326 326 327 327 327 325 325 326 328 329 330 330 332 332 330 331
314 313 313 313 317 321 321 319 319 318 319 319 323 323 323 323 323 324 324 323 323 322 322 322 321 323 325 326 326 326 326 325 326 327 325 324 326 327 327 328 330 331 332 332 331
315 314 313 314 321 323 324 320 320 319 319 322 324 323 324 323 323 325 324 325 325 324 324 323 325 327 326 325 325 323 323 323 323 324 324 324 325 326 327 328 329 331 332 332 332
317 314 313 314 320 324 323 321 320 319 320 327 324 324 323 323 323 325 324 324 324 323 324 324 326 326 325 325 324 323 325 324 324 323 322 324 323 323 326 326 328 330 331 332 332
318 315 313 315 318 322 319 319 319 320 332 325 324 324 323 324 324 325 324 324 323 324 325 324 325 326 327 327 327 325 325 323 323 321 320 322 322 323 324 325 329 329 333 332 333
319 315 314 314 320 320 319 319 321 324 330 325 325 324 322 323 325 325 325 324 325 325 325 326 328 327 326 328 327 326 326 326 325 321 320 322 324 325 325 329 332 334 335 341 341
320 317 314 314 317 319 319 321 325 328 329 326 325 325 323 324 325 325 325 324 323 325 327 326 328 326 327 326 327 326 323 324 325 324 324 322 323 330 337 335 333 333 335 336 344
324 317 318 317 317 318 320 323 329 331 327 326 324 323 324 325 325 325 324 323 325 326 324 327 327 326 326 324 326 326 325 325 328 328 328 324 324 337 335 334 333 332 333 334 334
324 320 319 322 320 320 321 325 329 328 325 324 324 326 326 325 326 325 324 325 325 325 326 325 326 325 325 326 326 326 325 324 323 327 327 329 331 337 331 331 332 333 331 332 334
322 322 324 322 319 320 322 324 326 325 324 324 324 326 327 327 326 325 326 325 325 325 324 325 323 324 327 325 325 326 330 329 329 332 332 333 334 337 333 331 332 330 332 332 331
321 322 323 322 320 319 322 324 326 325 324 324 323 324 325 327 326 326 326 326 325 325 324 324 324 325 324 324 323 323 329 329 327 329 330 333 334 333 333 332 332 329 332 331 331
319 325 323 322 322 322 324 326 324 324 323 324 325 326 326 325 326 327 327 327 325 325 326 326 323 324 324 323 324 325 332 330 328 328 325 327 329 333 333 331 330 330 330 330 329
317 322 324 323 321 322 324 325 326 324 323 324 324 326 325 327 328 328 328 327 327 326 325 326 324 324 326 325 326 326 327 325 329 328 329 333 332 330 330 332 330 333 335 328 332
318 326 325 323 324 324 326 326 325 324 323 323 323 322 323 325 325 327 327 328 327 325 324 325 324 327 325 325 326 327 327 326 324 325 325 330 329 333 333 338 334 334 338 332 335
322 327 323 325 324 323 323 324 325 323 323 323 324 324 324 325 326 326 328 326 327 325 325 322 325 326 324 324 327 328 328 327 327 329 329 332 334 333 335 337 338 341 339 331 333
320 325 323 322 322 323 322 325 325 323 323 323 323 322 322 323 324 324 324 325 327 324 322 321 322 324 326 328 329 329 329 334 333 334 335 338 340 337 335 340 341 340 340 333 335
322 323 322 322 323 324 323 324 325 324 323 323 322 321 321 321 320 320 320 321 321 321 321 321 322 325 328 331 329 330 335 334 336 334 338 339 335 333 331 332 337 336 332 337 340
Wind_Speed
23 22 21 21 21 21 20 20 19 18 17 16 16 17 17 17 18 21 22 16 11 11 16 16 12 10 7 18 19 21 6 8 9 11 8 39 11 32 12 18 13 15 29 36 37
23 23 22 21 22 22 21 20 19 18 17 16 15 15 16 17 19 24 20 17 15 16 18 17 11 6 13 17 16 7 4 10 13 12 10 20 25 28 16 13 18 24 32 42 39
23 23 22 22 22 22 21 20 19 18 16 15 14 13 12 14 17 9 7 8 13 16 14 10 12 16 18 20 22 17 10 15 15 19 24 13 17 28 13 7 28 37 42 43 42
23 22 22 22 22 22 21 20 19 18 16 14 12 10 9 9 3 3 3 1 5 8 10 11 17 21 10 9 25 10 19 18 15 19 17 8 20 13 21 10 4 32 48 45 44
24 23 22 22 22 22 21 20 19 16 14 12 9 7 7 7 15 9 8 6 6 5 10 9 16 18 9 11 19 11 13 26 30 31 27 28 14 19 20 20 19 38 44 43 40
24 23 23 23 23 23 22 20 18 14 12 10 6 5 5 6 3 7 6 13 12 10 9 10 14 17 23 17 10 21 21 24 28 27 25 18 18 19 28 23 8 39 43 41 40
25 24 24 24 24 23 22 19 17 13 10 6 4 5 8 13 2 6 6 6 8 12 11 13 16 21 23 10 19 24 15 17 19 25 22 31 19 14 19 12 18 35 41 43 44
26 24 24 24 24 23 19 17 14 8 4 2 3 4 7 3 9 10 9 12 7 6 17 12 16 17 16 21 19 13 9 8 19 19 29 16 16 13 8 9 12 12 38 40 44
27 26 25 24 22 20 17 14 6 6 3 2 2 4 9 2 6 4 8 11 8 14 13 13 14 17 17 7 7 7 11 15 20 17 14 7 8 8 10 12 18 14 25 39 44
28 27 25 24 21 17 16 8 7 5 2 2 3 6 5 4 3 7 8 11 10 11 20 19 18 4 5 3 8 9 9 12 16 17 17 16 12 9 14 14 6 8 19 30 40
28 27 26 22 16 15 18 7 7 2 9 10 19 12 14 3 8 6 3 4 9 10 4 14 4 8 15 15 18 17 14 11 15 15 10 12 11 12 13 12 9 19 15 21 20
29 27 25 20 10 12 16 10 9 9 13 15 18 17 12 6 7 11 4 7 10 8 10 6 9 17 17 19 18 13 12 13 11 9 9 11 12 14 9 9 19 17 20 21 26
29 27 25 17 7 12 8 11 11 12 5 13 13 12 7 6 10 11 6 8 6 7 10 9 11 10 10 9 7 6 8 8 12 9 8 9 7 9 13 21 27 24 26 29 28
28 27 24 17 5 12 7 13 12 8 3 4 7 4 8 8 8 3 4 3 4 7 10 7 9 11 10 9 8 6 8 13 16 13 3 8 16 7 10 12 10 22 33 33 38
26 26 20 16 8 4 14 15 13 5 4 7 6 8 4 5 8 8 8 4 9 9 5 8 11 10 9 11 8 6 9 10 12 10 6 10 4 11 9 12 12 11 18 22 30
25 24 21 14 7 12 17 15 8 1 3 3 6 6 8 17 12 9 9 14 10 6 10 9 16 10 8 7 4 7 8 9 8 5 2 11 6 9 7 11 16 13 25 17 16
25 22 19 11 6 9 12 13 2 3 2 5 4 4 9 9 2 5 1 4 6 4 6 10 8 17 18 11 11 11 8 5 5 5 5 13 5 4 18 16 19 18 29 46 29
27 24 12 6 10 8 11 3 3 9 12 5 9 11 8 1 3 1 3 9 6 7 6 4 8 17 17 12 6 7 5 2 6 4 7 9 9 3 8 17 27 35 38 25 40
28 21 10 2 8 10 9 2 3 7 10 10 11 8 9 6 3 3 7 5 5 7 4 4 6 16 20 14 6 7 6 9 6 6 6 2 5 5 18 20 20 20 32 39 17
30 21 7 4 2 4 2 5 4 6 9 8 5 6 6 8 4 8 6 4 5 10 10 6 8 8 16 17 13 5 2 6 5 5 4 5 5 3 11 13 12 13 10 14 28
24 12 4 2 3 6 3 6 15 9 8 6 8 7 12 9 8 6 6 7 9 8 8 5 5 8 9 6 15 12 4 4 2 2 3 3 3 6 2 3 6 9 12 6 12
12 4 4 1 4 6 5 6 4 4 13 3 4 6 6 9 7 7 9 5 6 5 4 3 2 5 15 22 19 5 2 3 3 7 3 4 5 8 4 3 7 10 17 12 11
17 10 8 9 3 4 9 13 9 4 6 4 7 7 10 6 5 6 8 18 12 4 5 1 2 6 9 9 18 12 11 9 2 1 6 4 6 4 7 8 9 13 20 11 16
7 4 6 9 14 7 7 7 10 19 5 3 6 10 7 8 9 6 12 8 19 9 8 4 1 2 5 9 10 16 20 17 9 9 11 8 16 8 10 11 6 9 15 5 13
3 5 13 4 10 13 11 10 12 14 17 12 1 6 8 6 8 9 7 9 16 5 9 5 2 6 9 14 18 18 18 20 13 11 6 7 7 6 9 9 10 15 8 8 8
5 12 13 16 16 12 10 7 12 14 10 10 5 11 6 6 6 7 8 7 3 9 9 7 6 8 12 16 17 19 19 12 13 12 8 9 5 5 11 17 17 20 17 1 7
7 8 8 10 10 9 10 13 15 13 8 11 10 8 7 8 16 19 18 14 11 8 9 8 6 6 14 9 13 12 7 8 6 7 2 10 4 7 7 8 7 6 10 11 2
Wind_Direction
338 335 332 330 328 323 320 317 312 309 305 305 302 299 297 297 291 284 272 277 273 284 293 292 280 250 266 261 261 269 271 273 177 185 222 284 289 304 138 128 146 185 155 160 156
338 336 333 331 329 326 323 321 316 311 307 304 296 295 301 300 294 283 287 262 264 276 278 274 256 257 247 262 261 250 241 257 194 204 232 253 281 290 336 152 100 106 137 152 157
339 337 334 332 330 327 326 325 321 314 309 306 298 293 300 305 308 288 308 252 253 266 262 254 236 251 245 267 274 270 251 260 280 277 222 254 312 315 327 335 142 142 147 155 162
340 338 336 332 330 327 327 324 318 315 313 307 299 292 289 295 292 7 358 178 244 245 229 212 251 262 272 270 274 278 275 279 293 321 312 290 319 316 299 306 27 160 159 161 168
340 338 336 332 329 328 326 323 319 318 315 308 301 288 281 269 259 289 251 238 246 249 202 225 262 254 265 270 284 300 315 318 315 316 315 309 301 291 298 300 289 162 161 166 172
342 340 337 334 332 330 329 326 323 323 312 303 294 278 259 251 190 253 295 255 245 236 238 252 274 272 274 288 305 307 305 302 308 296 294 279 276 269 269 270 237 165 166 170 176
347 343 341 338 336 333 333 331 329 323 307 293 273 265 246 246 186 310 300 297 270 241 248 249 257 277 292 304 301 305 311 310 302 295 283 282 290 276 262 283 243 172 172 176 180
350 346 343 341 340 337 337 331 331 334 325 272 259 273 257 327 217 250 252 260 271 229 234 264 287 310 310 310 312 305 307 293 278 272 275 275 265 239 253 269 293 197 177 181 182
352 349 347 345 342 344 346 335 19 18 36 134 103 308 286 294 259 262 224 244 252 251 248 258 277 282 295 299 308 281 272 268 273 272 270 281 302 274 215 256 273 281 174 184 187
353 351 347 345 347 354 359 332 333 334 343 280 220 293 258 263 329 271 244 252 260 254 245 243 248 242 264 232 253 254 271 285 296 304 315 315 307 305 298 242 267 290 259 184 188
353 351 347 346 356 7 16 22 7 37 316 252 295 253 301 317 283 254 218 232 240 274 295 268 206 228 237 230 239 250 262 290 303 305 312 300 299 293 293 290 263 244 257 239 229
351 351 350 350 12 29 24 39 16 332 300 281 259 263 258 271 282 228 234 221 183 221 238 258 245 244 248 256 259 262 268 273 276 274 293 296 291 294 300 283 283 262 251 260 234
348 351 349 352 26 20 25 12 359 337 276 287 231 234 264 205 266 157 176 263 250 230 244 223 250 279 285 282 304 307 308 306 312 325 312 294 299 287 272 270 270 265 250 252 255
345 347 349 358 22 10 43 346 338 345 304 187 191 250 231 235 258 292 226 317 294 290 298 284 310 305 316 326 323 307 320 330 326 332 292 330 301 300 282 274 263 252 248 242 243
343 341 350 344 345 10 339 336 325 326 16 188 116 170 225 229 317 199 179 244 249 266 321 270 292 291 293 271 264 275 297 278 282 279 299 285 284 277 284 295 282 274 280 205 234
344 337 336 324 318 356 341 327 329 340 247 139 149 198 206 224 233 181 205 207 254 292 271 262 303 246 272 318 15 328 329 334 316 273 315 259 245 287 276 7 360 14 16 75 29
343 334 318 309 298 306 355 334 333 236 203 100 37 341 331 292 204 314 20 276 221 196 272 333 316 8 26 360 347 347 340 315 330 336 260 296 335 95 4 34 34 5 29 20 30
341 335 315 328 348 1 348 317 259 317 16 44 6 332 278 350 320 195 314 280 3 53 44 15 324 14 343 319 293 307 254 223 283 281 294 315 289 334 349 45 36 22 355 14 17
339 340 307 338 355 27 321 297 303 10 20 355 320 294 283 123 181 322 272 283 86 77 81 343 312 333 314 329 349 301 332 269 289 294 311 323 331 339 355 9 29 27 12 350 358
338 337 347 141 308 322 310 267 295 55 27 355 320 303 337 347 320 356 328 74 80 68 63 335 311 282 332 325 312 333 276 18 355 341 314 339 316 294 348 346 355 356 25 341 344
338 329 164 206 299 269 245 263 318 58 76 346 343 326 337 335 353 342 311 47 46 33 27 21 44 309 331 328 309 314 7 33 160 245 240 283 270 207 235 338 341 328 334 323 300
339 290 205 295 265 232 237 263 219 334 322 220 258 289 278 306 326 342 327 359 58 43 41 57 291 310 295 286 269 308 141 156 141 276 257 229 263 147 125 58 36 338 311 314 315
330 274 303 228 268 280 313 322 332 336 315 350 329 328 349 316 331 314 307 317 322 309 128 30 310 313 324 329 341 355 332 320 257 20 230 186 259 56 28 20 34 1 352 336 349
326 300 266 219 250 299 317 317 336 329 170 274 283 307 323 317 306 267 272 296 320 93 163 173 151 243 277 274 303 312 317 312 290 292 284 252 264 18 7 358 330 1 350 13 23
272 297 8 324 342 337 328 331 321 316 317 294 219 278 271 279 285 281 317 345 338 120 360 34 286 286 284 299 288 281 280 280 297 8 354 359 49 12 349 320 2 8 14 360 353
290 329 329 306 312 308 292 273 277 276 278 305 335 327 319 329 3 357 17 6 297 331 343 326 295 286 281 279 294 306 309 12 348 14 22 26 38 302 2 13 28 29 14 99 83
288 304 348 297 303 296 285 287 281 300 329 337 320 351 329 324 359 338 326 311 279 272 274 261 260 279 278 292 312 300 10 18 70 56 11 47 306 1 352 326 353 19 3 341 113